Wolf Point, MT

9:43 PM MDT on September 24, 2017 (GMT -0600)
Clayton

Weather History for KOLF - April, 2013

Change the Weather History Date:

Friday, April 12, 2013

  Actual Average Record
Temperature  
Mean Temperature 37 °F -  
Max Temperature 49 °F 58 °F 80 °F (2003)
Min Temperature 24 °F 28 °F 18 °F (2004)
Degree Days  
Heating Degree Days 28    
Cooling Degree Days 0    
Moisture  
Dew Point 28 °F    
Average Humidity 73    
Maximum Humidity 92    
Minimum Humidity 39    
Precipitation  
Precipitation 0.00 in 0.03 in 0.03 in (2001)
Month to date precipitation 0.10 0.27  
Year to date precipitation 0.83 1.25  
Sea Level Pressure  
Sea Level Pressure 29.98 in    
Wind  
Wind Speed 6 mph (NNE)    
Max Wind Speed 16 mph    
Max Gust Speed 20 mph    
Visibility 10 miles    
Events      
T = Trace of Precipitation, MM = Missing Value Source: NWS Daily Summary

Daily Weather History Graph

Daily Weather History Graph

Search for Another Location

Airport or City:

Trip Planner

Search our weather history database for the weather conditions in past years. The results will help you decide how hot, cold, wet, or windy it might be!

Date:

Astronomy

Apr. 12, 2013 Rise Set
Actual Time 6:17 AM MDT 7:48 PM MDT
Civil Twilight 5:45 AM MDT 8:21 PM MDT
Nautical Twilight 5:06 AM MDT 9:01 PM MDT
Astronomical Twilight 4:23 AM MDT 9:43 PM MDT
Moon 7:19 AM MDT (4/12) 10:33 PM MDT (4/12)
Length of Visible Light 14h 35m
Length of Day
13h 31m
Waxing Crescent, 5% of the Moon is Illuminated
Apr 12
Waxing Crescent
Apr 18
First Quarter
Apr 25
Full
May 2
Last Quarter
May 9
New

Hourly Weather History & Observations

Time (MDT) Temp. Windchill Dew Point Humidity Pressure Visibility Wind Dir Wind Speed Gust Speed Precip Events Conditions
12:53 AM 30.9 °F - 28.9 °F 92% 29.96 in 10.0 mi Calm Calm - N/A   Overcast
1:53 AM 32.0 °F - 30.0 °F 92% 29.97 in 10.0 mi Calm Calm - N/A   Overcast
2:53 AM 33.1 °F - 30.0 °F 89% 29.96 in 10.0 mi Calm Calm - N/A   Overcast
3:45 AM 32.0 °F 26.4 °F 28.4 °F 87% 29.89 in 10.0 mi ENE 5.8 mph - N/A   Mostly Cloudy
3:53 AM 32.0 °F 27.5 °F 28.9 °F 88% 29.96 in 10.0 mi ENE 4.6 mph - N/A   Scattered Clouds
4:19 AM 32.0 °F - 28.4 °F 87% 29.90 in 10.0 mi Calm Calm - N/A   Mostly Cloudy
4:53 AM 33.1 °F - 30.0 °F 89% 29.97 in 10.0 mi Calm Calm - N/A   Overcast
5:53 AM 34.0 °F 29.8 °F 30.0 °F 85% 29.97 in 10.0 mi NE 4.6 mph - N/A   Overcast
6:53 AM 35.1 °F 25.2 °F 28.9 °F 78% 29.98 in 10.0 mi North 16.1 mph - N/A   Overcast
7:45 AM 35.6 °F 26.2 °F 28.4 °F 75% 29.94 in 10.0 mi North 15.0 mph - N/A   Overcast
7:53 AM 35.1 °F 25.5 °F 28.9 °F 78% 30.01 in 9.0 mi North 15.0 mph - N/A   Overcast
8:25 AM 35.6 °F 30.7 °F 30.2 °F 81% 29.95 in 8.0 mi NNW 5.8 mph - N/A   Overcast
8:53 AM 37.0 °F 29.8 °F 28.9 °F 73% 30.03 in 10.0 mi NNW 10.4 mph - N/A   Overcast
9:53 AM 37.0 °F 29.8 °F 30.0 °F 76% 30.04 in 9.0 mi NNW 10.4 mph - N/A   Overcast
10:53 AM 39.0 °F 33.4 °F 28.9 °F 67% 30.05 in 10.0 mi NW 8.1 mph - N/A   Overcast
11:53 AM 41.0 °F 34.3 °F 28.9 °F 62% 30.05 in 10.0 mi NNW 11.5 mph - N/A   Overcast
12:53 PM 41.0 °F 33.5 °F 28.9 °F 62% 30.05 in 10.0 mi North 13.8 mph - N/A   Overcast
1:53 PM 41.0 °F 34.7 °F 30.0 °F 65% 30.04 in 10.0 mi North 10.4 mph - N/A   Overcast
2:09 PM 42.8 °F 36.2 °F 28.4 °F 57% 29.98 in 10.0 mi North 12.7 mph - N/A   Overcast
2:53 PM 44.1 °F 37.1 °F 28.9 °F 55% 30.03 in 10.0 mi North 15.0 mph 19.6 mph N/A   Overcast
3:53 PM 46.9 °F - 27.0 °F 46% 30.00 in 10.0 mi North 8.1 mph 18.4 mph N/A   Mostly Cloudy
4:53 PM 48.0 °F - 24.1 °F 39% 29.98 in 10.0 mi North 12.7 mph 16.1 mph N/A   Partly Cloudy
5:53 PM 48.0 °F - 25.0 °F 41% 29.97 in 10.0 mi North 11.5 mph - N/A   Clear
6:53 PM 44.1 °F 38.6 °F 27.0 °F 51% 29.96 in 10.0 mi NE 10.4 mph - N/A   Clear
7:53 PM 37.0 °F 31.0 °F 27.0 °F 67% 29.97 in 10.0 mi ENE 8.1 mph - N/A   Clear
8:53 PM 33.1 °F 25.5 °F 27.0 °F 78% 29.98 in 10.0 mi East 9.2 mph - N/A   Clear
9:53 PM 28.0 °F 22.8 °F 25.0 °F 88% 29.98 in 10.0 mi ENE 4.6 mph - N/A   Clear
10:53 PM 26.1 °F 17.6 °F 23.0 °F 88% 29.96 in 10.0 mi NE 8.1 mph - N/A   Clear
11:53 PM 26.1 °F 18.4 °F 24.1 °F 92% 29.93 in 8.0 mi ENE 6.9 mph - N/A   Clear